Date String (YYYY-MM-DD hh:mm:ss) UTC,Instrument flags,absolute air pressure of the measurement (hPa),sample flow rate (lpm),inlet stack bypass flow (lpm),air temperature of the measurement (°C),ambient temperature measured by the external sensor (°C),aerosol sample conditioner tube jacket temperature (°C),OPC LED temperature (°C),internal box temperature (°C),relative humidity of the measurement (%),span deviation,mass concentration of particles derived from Lorenz-Mie calculation of OPC scattering (μg/m³),mass concentration of particles derived from Lorenz-Mie calculation of OPC scattering (μg/m³),mass concentration of particles derived from Lorenz-Mie calculation of OPC scattering (μg/m³)
DateTimeUTC,F1_M11,P_M11,Q1_M11,Q2_M11,T1_M11,T2_M11,T3_M11,T4_M11,T5_M11,U1_M11,ZSPAN_M11,X0_M11,X2_M11,X1_M11
2023-06-08 01:00:00,SystemResetWarning,0828.3,5.00,000.00,029.8,028.2,000.0,038.4,031.3,21.3,0000.0,0004.00,0001.60,0001.08
2023-06-08 01:01:00,SystemResetWarning,0828.4,5.00,000.00,029.8,028.2,000.0,038.4,031.3,21.0,0000.0,0003.99,0001.59,0001.08
2023-06-08 01:02:00,SystemResetWarning,0828.4,5.00,000.00,029.8,028.2,000.0,038.4,031.3,21.0,0000.0,0003.95,0001.55,0001.08
2023-06-08 01:03:00,SystemResetWarning,0828.4,5.00,000.00,029.8,028.2,000.0,038.4,031.3,21.2,0000.0,0003.95,0001.53,0001.08
2023-06-08 01:04:00,SystemResetWarning,0828.4,5.00,000.00,029.9,028.2,000.0,038.4,031.3,21.0,0000.0,0003.75,0001.52,0001.07
2023-06-08 01:05:00,SystemResetWarning,0828.4,5.00,000.00,029.9,028.2,000.0,038.4,031.3,21.2,0000.0,0003.29,0001.51,0001.07
2023-06-08 01:06:00,SystemResetWarning,0828.4,5.00,000.00,029.9,028.2,000.0,038.4,031.3,20.9,0000.0,0003.23,0001.50,0001.08
2023-06-08 01:07:00,SystemResetWarning,0828.4,5.00,000.00,029.9,028.2,000.0,038.4,031.3,21.1,0000.0,0003.20,0001.48,0001.07
2023-06-08 01:08:00,SystemResetWarning,0828.4,5.00,000.00,029.9,028.3,000.0,038.4,031.3,21.0,0000.0,0003.14,0001.46,0001.06
2023-06-08 01:09:00,SystemResetWarning,0828.4,5.00,000.00,029.9,028.3,000.0,038.4,031.3,20.8,0000.0,0002.84,0001.45,0001.07
2023-06-08 01:10:00,SystemResetWarning,0828.4,5.00,000.00,029.9,028.3,000.0,038.4,031.3,20.8,0000.0,0002.72,0001.44,0001.07
2023-06-08 01:11:00,SystemResetWarning,0828.3,5.00,000.00,029.9,028.3,000.0,038.4,031.3,20.9,0000.0,0002.57,0001.44,0001.08
2023-06-08 01:12:00,SystemResetWarning,0828.3,5.00,000.00,029.9,028.3,000.0,038.5,031.3,20.6,0000.0,0002.74,0001.51,0001.09
2023-06-08 01:13:00,SystemResetWarning,0828.4,4.99,000.00,029.9,028.3,000.0,038.5,031.3,20.7,0000.0,0002.67,0001.52,0001.09
2023-06-08 01:14:00,SystemResetWarning,0828.4,5.00,000.00,029.9,028.3,000.0,038.5,031.3,20.9,0000.0,0002.65,0001.54,0001.10
2023-06-08 01:15:00,SystemResetWarning,0828.4,5.00,000.00,029.9,028.3,000.0,038.5,031.4,20.5,0000.0,0003.23,0001.60,0001.13
2023-06-08 01:16:00,SystemResetWarning,0828.4,5.01,000.00,029.9,028.3,000.0,038.5,031.4,20.4,0000.0,0003.77,0001.64,0001.13
2023-06-08 01:17:00,SystemResetWarning,0828.4,5.00,000.00,030.0,028.3,000.0,038.5,031.4,20.5,0000.0,0003.76,0001.64,0001.15
2023-06-08 01:18:00,SystemResetWarning,0828.4,5.00,000.00,030.0,028.3,000.0,038.5,031.4,20.4,0000.0,0004.75,0001.65,0001.16
2023-06-08 01:19:00,SystemResetWarning,0828.3,5.00,000.00,030.0,028.3,000.0,038.5,031.4,20.4,0000.0,0005.15,0001.68,0001.15
2023-06-08 01:20:00,SystemResetWarning,0828.3,5.00,000.00,030.0,028.4,000.0,038.5,031.4,20.3,0000.0,0005.17,0001.69,0001.15
2023-06-08 01:21:00,SystemResetWarning,0828.3,5.00,000.00,030.0,028.4,000.0,038.5,031.4,20.4,0000.0,0005.22,0001.72,0001.16
2023-06-08 01:22:00,SystemResetWarning,0828.3,4.99,000.00,030.0,028.4,000.0,038.5,031.4,20.4,0000.0,0005.27,0001.69,0001.15
2023-06-08 01:23:00,SystemResetWarning,0828.3,4.99,000.00,030.0,028.4,000.0,038.5,031.4,20.4,0000.0,0005.26,0001.61,0001.13
2023-06-08 01:24:00,SystemResetWarning,0828.4,5.00,000.00,030.0,028.4,000.0,038.5,031.4,20.3,0000.0,0005.32,0001.62,0001.13
2023-06-08 01:25:00,SystemResetWarning,0828.4,5.01,000.00,030.0,028.4,000.0,038.5,031.5,20.0,0000.0,0005.33,0001.58,0001.12
2023-06-08 01:26:00,SystemResetWarning,0828.4,5.01,000.00,030.0,028.4,000.0,038.5,031.4,20.0,0000.0,0004.75,0001.53,0001.10
2023-06-08 01:27:00,SystemResetWarning,0828.4,5.01,000.00,030.0,028.4,000.0,038.5,031.5,20.3,0000.0,0004.10,0001.46,0001.09
2023-06-08 01:28:00,SystemResetWarning,0828.4,5.01,000.00,030.0,028.4,000.0,038.5,031.5,20.3,0000.0,0004.11,0001.45,0001.06
2023-06-08 01:29:00,SystemResetWarning,0828.4,5.00,000.00,030.0,028.4,000.0,038.6,031.5,20.3,0000.0,0003.03,0001.45,0001.05
2023-06-08 01:30:00,SystemResetWarning,0828.4,4.99,000.00,030.0,028.4,000.0,038.6,031.5,20.4,0000.0,0002.68,0001.43,0001.05
2023-06-08 01:31:00,SystemResetWarning,0828.4,5.00,000.00,030.0,028.4,000.0,038.6,031.5,20.3,0000.0,0002.63,0001.40,0001.05
2023-06-08 01:32:00,SystemResetWarning,0828.4,5.01,000.00,030.1,028.5,000.0,038.6,031.5,20.5,0000.0,0002.69,0001.41,0001.04
2023-06-08 01:33:00,SystemResetWarning,0828.4,5.01,000.00,030.1,028.5,000.0,038.6,031.5,20.3,0000.0,0002.71,0001.41,0001.04
2023-06-08 01:34:00,SystemResetWarning,0828.3,4.99,000.00,030.1,027.8,000.0,038.6,031.5,20.2,0000.0,0003.22,0001.44,0001.05
2023-06-08 01:35:00,SystemResetWarning,0828.3,5.00,000.00,030.1,025.5,000.0,038.5,031.5,20.3,0000.0,0004.00,0001.45,0001.06
2023-06-08 01:36:00,SystemResetWarning,0828.3,5.02,000.00,030.0,024.8,000.0,038.4,031.4,20.1,0000.0,0003.97,0001.46,0001.06
2023-06-08 01:37:00,SystemResetWarning,0828.3,4.99,000.00,029.9,025.0,000.0,038.4,031.0,20.4,0000.0,0004.00,0001.46,0001.05
2023-06-08 01:38:00,SystemResetWarning,0828.3,5.00,000.00,029.8,025.4,000.0,038.4,030.8,20.7,0000.0,0004.10,0001.49,0001.05
2023-06-08 01:39:00,SystemResetWarning,0828.4,5.00,000.00,029.7,025.8,000.0,038.4,030.7,20.9,0000.0,0004.34,0001.58,0001.06
2023-06-08 01:40:00,SystemResetWarning,0828.3,5.01,000.00,029.6,026.1,000.0,038.3,030.7,21.2,0000.0,0004.39,0001.57,0001.06
2023-06-08 01:41:00,SystemResetWarning,0828.3,5.01,000.00,029.6,026.5,000.0,038.3,030.7,21.0,0000.0,0004.41,0001.57,0001.05
2023-06-08 01:42:00,SystemResetWarning,0828.3,5.00,000.00,029.6,026.7,000.0,038.3,030.8,20.8,0000.0,0004.32,0001.56,0001.05
2023-06-08 01:43:00,SystemResetWarning,0828.3,4.99,000.00,029.6,027.0,000.0,038.3,030.8,21.0,0000.0,0004.34,0001.56,0001.04
2023-06-08 01:44:00,SystemResetWarning,0828.3,4.99,000.00,029.5,027.2,000.0,038.3,030.9,21.2,0000.0,0004.28,0001.57,0001.04
2023-06-08 01:45:00,SystemResetWarning,0828.3,4.99,000.00,029.5,027.3,000.0,038.2,030.9,21.3,0000.0,0003.58,0001.54,0001.03
2023-06-08 01:46:00,SystemResetWarning,0828.3,5.00,000.00,029.5,027.5,000.0,038.2,030.9,21.3,0000.0,0002.76,0001.51,0001.02
2023-06-08 01:47:00,SystemResetWarning,0828.3,5.00,000.00,029.5,027.6,000.0,038.2,031.0,20.8,0000.0,0002.66,0001.48,0001.01
2023-06-08 01:48:00,SystemResetWarning,0828.4,5.00,000.00,029.5,027.6,000.0,038.2,030.9,20.4,0000.0,0002.63,0001.49,0001.00
2023-06-08 01:49:00,SystemResetWarning,0828.3,5.00,000.00,029.6,027.7,000.0,038.2,030.9,20.7,0000.0,0002.94,0001.56,0001.01
2023-06-08 01:50:00,SystemResetWarning,0828.3,4.99,000.00,029.6,027.8,000.0,038.2,031.0,20.6,0000.0,0003.05,0001.56,0001.02
2023-06-08 01:51:00,SystemResetWarning,0828.3,5.00,000.00,029.6,027.8,000.0,038.2,031.0,20.8,0000.0,0003.03,0001.57,0001.01
2023-06-08 01:52:00,SystemResetWarning,0828.3,5.00,000.00,029.6,027.9,000.0,038.2,031.0,20.9,0000.0,0002.94,0001.56,0001.01
2023-06-08 01:53:00,SystemResetWarning,0828.3,5.00,000.00,029.6,027.9,000.0,038.2,031.1,20.9,0000.0,0003.02,0001.55,0001.00
2023-06-08 01:54:00,SystemResetWarning,0828.3,4.99,000.00,029.6,028.0,000.0,038.2,031.1,21.0,0000.0,0003.05,0001.55,0001.00
2023-06-08 01:55:00,SystemResetWarning,0828.3,5.00,000.00,029.6,028.0,000.0,038.2,031.1,20.8,0000.0,0002.90,0001.53,0001.01
2023-06-08 01:56:00,SystemResetWarning,0828.3,5.00,000.00,029.6,028.0,000.0,038.2,031.1,20.4,0000.0,0002.87,0001.51,0001.02
2023-06-08 01:57:00,SystemResetWarning,0828.3,5.00,000.00,029.7,028.1,000.0,038.2,031.2,20.7,0000.0,0002.88,0001.52,0001.01
2023-06-08 01:58:00,SystemResetWarning,0828.3,5.00,000.00,029.7,028.1,000.0,038.2,031.2,20.9,0000.0,0002.98,0001.52,0001.02
2023-06-08 01:59:00,SystemResetWarning,0828.4,5.00,000.00,029.7,028.1,000.0,038.2,031.2,20.4,0000.0,0003.16,0001.52,0001.03
